• Em Portugal
  • Lista de países
  • Para 7 dias
  • Temperatura da água
  • Mapas de satélite
  • Mapa do tempo
  • Widgets de tempo
  • user-avatar
    Iniciar Sessão

    Previsão horária em Tuzla

    Hoje, 21 Fevereiro, Quarta-feira

    Tempo Temperatura Precipitação Vento Pressão Humidade
    00:00 +1°C° 0,3 mm 1 m/s 714 mmHg 96%
    01:00 +1°C° 0,3 mm 1 m/s 714 mmHg 96%
    02:00 +1°C° 0,6 mm 1 m/s 714 mmHg 96%
    03:00 +1°C° 0,6 mm 1 m/s 714 mmHg 96%
    04:00 0°C° 0,6 mm 1 m/s 714 mmHg 96%
    05:00 +1°C° 0,7 mm 1 m/s 714 mmHg 96%
    06:00 +1°C° 0,7 mm 1 m/s 714 mmHg 96%
    07:00 +1°C° 0,7 mm 1 m/s 714 mmHg 96%
    08:00 +1°C° 0,3 mm 1 m/s 714 mmHg 95%
    09:00 +2°C° 0,3 mm 1 m/s 715 mmHg 94%
    10:00 +3°C° 0,3 mm 1 m/s 715 mmHg 94%
    11:00 +3°C° 0,1 mm 1 m/s 715 mmHg 94%
    12:00 +4°C° 0,1 mm 1 m/s 715 mmHg 94%
    13:00 +3°C° 0,1 mm 2 m/s 715 mmHg 94%
    14:00 +3°C° 0,1 mm 2 m/s 715 mmHg 95%
    15:00 +3°C° 0,1 mm 2 m/s 715 mmHg 96%
    16:00 +3°C° 0,1 mm 2 m/s 714 mmHg 96%
    17:00 +2°C° 0,1 mm 2 m/s 715 mmHg 96%
    18:00 +2°C° 0,1 mm 2 m/s 715 mmHg 96%
    19:00 +2°C° 0,1 mm 2 m/s 715 mmHg 96%
    20:00 +2°C° 0,2 mm 2 m/s 715 mmHg 96%
    21:00 +2°C° 0,2 mm 2 m/s 715 mmHg 96%
    22:00 +2°C° 0,2 mm 2 m/s 715 mmHg 95%
    23:00 +1°C° 0,1 mm 2 m/s 715 mmHg 95%

    Amanhã, 22 Fevereiro, Quinta-feira

    Tempo Temperatura Precipitação Vento Pressão Humidade
    00:00 +1°C° 0,1 mm 2 m/s 715 mmHg 95%
    01:00 +1°C° 0,1 mm 2 m/s 715 mmHg 95%
    02:00 +1°C° 0,3 mm 2 m/s 714 mmHg 95%
    03:00 +1°C° 0,3 mm 2 m/s 714 mmHg 95%
    04:00 +1°C° 0,3 mm 2 m/s 714 mmHg 95%
    05:00 +1°C° 0,5 mm 2 m/s 714 mmHg 95%
    06:00 +1°C° 0,5 mm 2 m/s 714 mmHg 95%
    07:00 +2°C° 0,5 mm 1 m/s 714 mmHg 95%
    08:00 +3°C° 0,1 mm 1 m/s 714 mmHg 95%
    09:00 +3°C° 0,1 mm 1 m/s 715 mmHg 94%
    10:00 +4°C° 0,1 mm 1 m/s 715 mmHg 93%
    11:00 +5°C° 0,1 mm 1 m/s 715 mmHg 93%
    12:00 +5°C° 0,1 mm 1 m/s 715 mmHg 93%
    13:00 +6°C° 0,1 mm 1 m/s 715 mmHg 92%
    14:00 +5°C° 0,2 mm 1 m/s 715 mmHg 93%
    15:00 +5°C° 0,2 mm 1 m/s 715 mmHg 94%
    16:00 +5°C° 0,2 mm 1 m/s 715 mmHg 96%
    17:00 +4°C° 0,3 mm 1 m/s 716 mmHg 96%
    18:00 +4°C° 0,3 mm 1 m/s 716 mmHg 96%
    19:00 +4°C° 0,3 mm 1 m/s 716 mmHg 97%
    20:00 +4°C° 0,4 mm 1 m/s 716 mmHg 97%
    21:00 +3°C° 0,4 mm 1 m/s 716 mmHg 96%
    22:00 +3°C° 0,4 mm 1 m/s 716 mmHg 96%
    23:00 +3°C° 0,2 mm 1 m/s 716 mmHg 96%

    Depois de amanhã, 23 Fevereiro, Sexta-feira

    Tempo Temperatura Precipitação Vento Pressão Humidade
    00:00 +3°C° 0,2 mm 1 m/s 716 mmHg 96%
    01:00 +3°C° 0,2 mm 1 m/s 716 mmHg 96%
    02:00 +3°C° 0,3 mm 1 m/s 715 mmHg 96%
    03:00 +3°C° 0,3 mm 1 m/s 715 mmHg 96%
    04:00 +3°C° 0,3 mm 1 m/s 715 mmHg 96%
    05:00 +3°C° 0,2 mm 1 m/s 715 mmHg 96%
    06:00 +3°C° 0,2 mm 1 m/s 715 mmHg 95%
    07:00 +2°C° 0,2 mm 2 m/s 715 mmHg 95%
    08:00 +3°C° 0,1 mm 2 m/s 715 mmHg 94%
    09:00 +5°C° 0,1 mm 1 m/s 716 mmHg 92%
    10:00 +6°C° 0,1 mm 1 m/s 716 mmHg 91%
    11:00 +7°C° 0,1 mm 1 m/s 717 mmHg 90%
    12:00 +7°C° 0,1 mm 1 m/s 717 mmHg 89%
    13:00 +8°C° 0,1 mm 1 m/s 717 mmHg 88%
    14:00 +7°C° 0,1 mm 1 m/s 717 mmHg 89%
    15:00 +6°C° 0,1 mm 2 m/s 718 mmHg 91%
    16:00 +6°C° 0,1 mm 2 m/s 718 mmHg 92%
    17:00 +5°C° 0 mm 2 m/s 718 mmHg 93%
    18:00 +5°C° 0 mm 1 m/s 718 mmHg 94%
    19:00 +5°C° 0 mm 1 m/s 718 mmHg 95%
    20:00 +5°C° 0 mm 1 m/s 719 mmHg 95%
    21:00 +5°C° 0 mm 1 m/s 719 mmHg 95%
    22:00 +3°C° 0 mm 2 m/s 719 mmHg 95%
    23:00 +3°C° 0 mm 2 m/s 719 mmHg 95%

    24 Fevereiro, Sábado

    Tempo Temperatura Precipitação Vento Pressão Humidade
    00:00 +3°C° 0 mm 2 m/s 719 mmHg 95%
    01:00 +3°C° 0 mm 2 m/s 720 mmHg 95%
    02:00 +2°C° 0,1 mm 2 m/s 720 mmHg 95%
    03:00 +2°C° 0,1 mm 2 m/s 720 mmHg 95%
    04:00 +2°C° 0,1 mm 2 m/s 719 mmHg 95%
    05:00 +2°C° 0,1 mm 2 m/s 720 mmHg 94%
    06:00 +1°C° 0,1 mm 2 m/s 720 mmHg 94%
    07:00 +1°C° 0,1 mm 2 m/s 720 mmHg 93%
    08:00 +1°C° 0,1 mm 2 m/s 720 mmHg 92%
    09:00 -1°C° 0,1 mm 3 m/s 721 mmHg 91%
    10:00 -1°C° 0,1 mm 3 m/s 721 mmHg 90%
    11:00 -1°C° 0,1 mm 3 m/s 721 mmHg 88%
    12:00 -1°C° 0,1 mm 3 m/s 721 mmHg 87%
    13:00 -1°C° 0,1 mm 3 m/s 721 mmHg 85%
    14:00 -2°C° 0,1 mm 2 m/s 721 mmHg 84%
    15:00 -2°C° 0,1 mm 2 m/s 721 mmHg 82%
    16:00 -2°C° 0,1 mm 2 m/s 721 mmHg 81%
    17:00 -3°C° 0 mm 2 m/s 721 mmHg 81%
    18:00 -3°C° 0 mm 2 m/s 722 mmHg 80%
    19:00 -4°C° 0 mm 2 m/s 722 mmHg 80%
    20:00 -4°C° 0 mm 2 m/s 722 mmHg 79%
    21:00 -4°C° 0 mm 2 m/s 722 mmHg 77%
    22:00 -5°C° 0 mm 2 m/s 723 mmHg 75%
    23:00 -5°C° 0,1 mm 2 m/s 722 mmHg 75%

    25 Fevereiro, Domingo

    Tempo Temperatura Precipitação Vento Pressão Humidade
    00:00 -5°C° 0,1 mm 2 m/s 722 mmHg 75%
    01:00 -6°C° 0,1 mm 2 m/s 722 mmHg 75%
    02:00 -6°C° 0,1 mm 2 m/s 722 mmHg 75%
    03:00 -6°C° 0,1 mm 2 m/s 722 mmHg 76%
    04:00 -7°C° 0,1 mm 2 m/s 721 mmHg 76%
    05:00 -7°C° 0,1 mm 2 m/s 721 mmHg 77%
    06:00 -7°C° 0,1 mm 2 m/s 721 mmHg 78%
    07:00 -7°C° 0,1 mm 2 m/s 721 mmHg 78%
    08:00 -7°C° 0,3 mm 2 m/s 721 mmHg 79%
    09:00 -7°C° 0,3 mm 2 m/s 721 mmHg 81%
    10:00 -7°C° 0,3 mm 2 m/s 721 mmHg 82%
    11:00 -7°C° 0,3 mm 2 m/s 721 mmHg 82%
    12:00 -7°C° 0,3 mm 3 m/s 720 mmHg 82%
    13:00 -7°C° 0,3 mm 3 m/s 720 mmHg 81%
    14:00 -7°C° 0,3 mm 3 m/s 720 mmHg 83%
    15:00 -8°C° 0,3 mm 3 m/s 720 mmHg 85%
    16:00 -8°C° 0,3 mm 3 m/s 719 mmHg 87%
    17:00 -8°C° 0,3 mm 3 m/s 719 mmHg 88%
    18:00 -8°C° 0,3 mm 2 m/s 719 mmHg 90%
    19:00 -8°C° 0,3 mm 2 m/s 719 mmHg 91%
    20:00 -8°C° 0,3 mm 2 m/s 719 mmHg 91%
    21:00 -8°C° 0,3 mm 2 m/s 719 mmHg 92%
    22:00 -8°C° 0,3 mm 2 m/s 719 mmHg 92%
    23:00 -8°C° 0,3 mm 2 m/s 718 mmHg 92%

    26 Fevereiro, Segunda-feira

    Tempo Temperatura Precipitação Vento Pressão Humidade
    00:00 -8°C° 0,3 mm 2 m/s 718 mmHg 92%
    01:00 -8°C° 0,3 mm 2 m/s 718 mmHg 92%
    02:00 -8°C° 0,3 mm 2 m/s 717 mmHg 93%
    03:00 -8°C° 0,3 mm 2 m/s 717 mmHg 93%
    04:00 -8°C° 0,3 mm 2 m/s 717 mmHg 93%
    05:00 -8°C° 0,3 mm 2 m/s 716 mmHg 93%
    06:00 -8°C° 0,3 mm 2 m/s 716 mmHg 93%
    07:00 -10°C° 0,3 mm 3 m/s 716 mmHg 93%
    08:00 -9°C° 0,3 mm 3 m/s 716 mmHg 91%
    09:00 -9°C° 0,3 mm 3 m/s 716 mmHg 89%
    10:00 -8°C° 0,3 mm 3 m/s 716 mmHg 88%
    11:00 -8°C° 0,3 mm 3 m/s 716 mmHg 88%
    12:00 -8°C° 0,3 mm 3 m/s 716 mmHg 87%
    13:00 -7°C° 0,3 mm 3 m/s 716 mmHg 87%
    14:00 -7°C° 0,4 mm 3 m/s 716 mmHg 88%
    15:00 -8°C° 0,4 mm 3 m/s 716 mmHg 90%
    16:00 -8°C° 0,4 mm 3 m/s 716 mmHg 91%
    17:00 -8°C° 0,4 mm 3 m/s 716 mmHg 92%
    18:00 -9°C° 0,4 mm 3 m/s 716 mmHg 93%
    19:00 -8°C° 0,4 mm 2 m/s 716 mmHg 94%
    20:00 -8°C° 0,3 mm 2 m/s 716 mmHg 95%
    21:00 -8°C° 0,3 mm 2 m/s 716 mmHg 95%
    22:00 -9°C° 0,3 mm 2 m/s 716 mmHg 95%
    23:00 -9°C° 0,3 mm 2 m/s 716 mmHg 95%
    Mostrar mais